When you browse on this site, cookies collect data to enhance your experience and personalize the content and advertising you see.
Visit our Privacy Policy to learn more. By continuing to use the site, you agree to this use of cookies and data.
  • en Suisse
  • Liste des pays
  • À 7 jours
  • Température de l'eau
  • Carte météo
  • Widgets météo
  • user-avatar
    Se connecter

    Météo par heure à Netrizovo

    Ce jour, 24 Août, Samedi

    Heure Température Précipitation Vent Pression Humidité
    00:00 +13°C° 0 mm 1 m/s 751 mmHg 87%
    01:00 +13°C° 0 mm 1 m/s 751 mmHg 88%
    02:00 +11°C° 0 mm 0 m/s 751 mmHg 88%
    03:00 +12°C° 0 mm 1 m/s 751 mmHg 89%
    04:00 +12°C° 0 mm 1 m/s 751 mmHg 89%
    05:00 +12°C° 0 mm 1 m/s 751 mmHg 90%
    06:00 +14°C° 0 mm 1 m/s 751 mmHg 85%
    07:00 +15°C° 0 mm 2 m/s 751 mmHg 81%
    08:00 +17°C° 0 mm 2 m/s 751 mmHg 76%
    09:00 +18°C° 0 mm 2 m/s 751 mmHg 72%
    10:00 +20°C° 0 mm 3 m/s 751 mmHg 68%
    11:00 +21°C° 0 mm 3 m/s 751 mmHg 64%
    12:00 +22°C° 0 mm 3 m/s 750 mmHg 63%
    13:00 +22°C° 0 mm 4 m/s 750 mmHg 62%
    14:00 +23°C° 0 mm 4 m/s 750 mmHg 61%
    15:00 +22°C° 0 mm 3 m/s 750 mmHg 65%
    16:00 +22°C° 0 mm 3 m/s 749 mmHg 69%
    17:00 +22°C° 0 mm 3 m/s 749 mmHg 73%
    18:00 +20°C° 0 mm 2 m/s 749 mmHg 78%
    19:00 +18°C° 0 mm 2 m/s 749 mmHg 83%
    20:00 +17°C° 0 mm 2 m/s 749 mmHg 87%
    21:00 +16°C° 0 mm 2 m/s 749 mmHg 90%
    22:00 +16°C° 0 mm 2 m/s 749 mmHg 92%
    23:00 +15°C° 0 mm 2 m/s 749 mmHg 94%

    Demain, 25 Août, Dimanche

    Heure Température Précipitation Vent Pression Humidité
    00:00 +15°C° 0 mm 2 m/s 749 mmHg 94%
    01:00 +14°C° 0 mm 2 m/s 750 mmHg 94%
    02:00 +14°C° 0 mm 1 m/s 750 mmHg 94%
    03:00 +14°C° 0 mm 2 m/s 750 mmHg 94%
    04:00 +13°C° 0 mm 2 m/s 750 mmHg 94%
    05:00 +13°C° 0 mm 2 m/s 750 mmHg 94%
    06:00 +14°C° 0 mm 2 m/s 750 mmHg 89%
    07:00 +16°C° 0 mm 2 m/s 751 mmHg 84%
    08:00 +17°C° 0 mm 2 m/s 751 mmHg 79%
    09:00 +18°C° 0 mm 2 m/s 751 mmHg 72%
    10:00 +20°C° 0 mm 2 m/s 751 mmHg 66%
    11:00 +21°C° 0 mm 2 m/s 751 mmHg 60%
    12:00 +21°C° 0 mm 2 m/s 751 mmHg 58%
    13:00 +23°C° 0 mm 2 m/s 751 mmHg 56%
    14:00 +23°C° 0 mm 2 m/s 751 mmHg 54%
    15:00 +23°C° 0 mm 2 m/s 751 mmHg 59%
    16:00 +21°C° 0 mm 2 m/s 751 mmHg 63%
    17:00 +22°C° 0 mm 1 m/s 751 mmHg 68%
    18:00 +20°C° 0 mm 1 m/s 751 mmHg 73%
    19:00 +18°C° 0 mm 1 m/s 751 mmHg 78%
    20:00 +15°C° 0 mm 1 m/s 752 mmHg 83%
    21:00 +14°C° 0 mm 1 m/s 752 mmHg 86%
    22:00 +14°C° 0 mm 1 m/s 752 mmHg 88%
    23:00 +13°C° 0 mm 1 m/s 752 mmHg 91%

    Après-demain, 26 Août, Lundi

    Heure Température Précipitation Vent Pression Humidité
    00:00 +13°C° 0 mm 1 m/s 752 mmHg 91%
    01:00 +12°C° 0 mm 1 m/s 752 mmHg 92%
    02:00 +12°C° 0 mm 1 m/s 752 mmHg 92%
    03:00 +12°C° 0 mm 1 m/s 752 mmHg 92%
    04:00 +11°C° 0 mm 1 m/s 752 mmHg 93%
    05:00 +10°C° 0 mm 0 m/s 752 mmHg 93%
    06:00 +12°C° 0 mm 0 m/s 752 mmHg 87%
    07:00 +14°C° 0 mm 0 m/s 752 mmHg 82%
    08:00 +16°C° 0 mm 0 m/s 752 mmHg 77%
    09:00 +17°C° 0 mm 0 m/s 752 mmHg 72%
    10:00 +21°C° 0 mm 1 m/s 752 mmHg 66%
    11:00 +22°C° 0 mm 1 m/s 752 mmHg 61%
    12:00 +22°C° 0 mm 1 m/s 751 mmHg 60%
    13:00 +23°C° 0 mm 2 m/s 751 mmHg 58%
    14:00 +23°C° 0 mm 2 m/s 751 mmHg 56%
    15:00 +23°C° 0 mm 2 m/s 750 mmHg 61%
    16:00 +21°C° 0 mm 2 m/s 750 mmHg 66%
    17:00 +22°C° 0 mm 1 m/s 750 mmHg 70%
    18:00 +20°C° 0 mm 1 m/s 749 mmHg 75%
    19:00 +18°C° 0 mm 1 m/s 749 mmHg 79%
    20:00 +15°C° 0 mm 1 m/s 749 mmHg 84%
    21:00 +15°C° 0 mm 1 m/s 749 mmHg 84%
    22:00 +14°C° 0 mm 1 m/s 749 mmHg 85%
    23:00 +14°C° 0 mm 1 m/s 749 mmHg 86%

    27 Août, Mardi

    Heure Température Précipitation Vent Pression Humidité
    00:00 +14°C° 0 mm 2 m/s 749 mmHg 86%
    01:00 +14°C° 0 mm 2 m/s 748 mmHg 87%
    02:00 +14°C° 0 mm 2 m/s 748 mmHg 87%
    03:00 +14°C° 0 mm 2 m/s 748 mmHg 90%
    04:00 +14°C° 0 mm 2 m/s 748 mmHg 92%
    05:00 +13°C° 0 mm 2 m/s 748 mmHg 95%
    06:00 +14°C° 0 mm 3 m/s 748 mmHg 92%
    07:00 +16°C° 0 mm 3 m/s 747 mmHg 88%
    08:00 +18°C° 0 mm 3 m/s 747 mmHg 84%
    09:00 +19°C° 0 mm 4 m/s 747 mmHg 78%
    10:00 +21°C° 0 mm 4 m/s 747 mmHg 72%
    11:00 +22°C° 0 mm 4 m/s 747 mmHg 66%
    12:00 +22°C° 0 mm 5 m/s 747 mmHg 66%
    13:00 +22°C° 0 mm 5 m/s 747 mmHg 65%
    14:00 +23°C° 0 mm 5 m/s 747 mmHg 64%
    15:00 +22°C° 0 mm 5 m/s 747 mmHg 66%
    16:00 +21°C° 0 mm 4 m/s 747 mmHg 67%
    17:00 +21°C° 0 mm 4 m/s 747 mmHg 69%
    18:00 +19°C° 0 mm 3 m/s 747 mmHg 71%
    19:00 +17°C° 0 mm 3 m/s 747 mmHg 74%
    20:00 +14°C° 0 mm 3 m/s 747 mmHg 76%
    21:00 +13°C° 0 mm 3 m/s 748 mmHg 80%
    22:00 +12°C° 0 mm 3 m/s 748 mmHg 83%
    23:00 +12°C° 0 mm 3 m/s 749 mmHg 87%

    28 Août, Mercredi

    Heure Température Précipitation Vent Pression Humidité
    00:00 +12°C° 0 mm 2 m/s 749 mmHg 89%
    01:00 +10°C° 0 mm 2 m/s 749 mmHg 92%
    02:00 +10°C° 0 mm 2 m/s 749 mmHg 94%
    03:00 +9°C° 0 mm 2 m/s 750 mmHg 94%
    04:00 +9°C° 0 mm 2 m/s 750 mmHg 94%
    05:00 +9°C° 0 mm 1 m/s 750 mmHg 94%
    06:00 +10°C° 0 mm 2 m/s 750 mmHg 86%
    07:00 +12°C° 0 mm 2 m/s 751 mmHg 79%
    08:00 +14°C° 0 mm 2 m/s 751 mmHg 71%
    09:00 +15°C° 0 mm 2 m/s 751 mmHg 65%
    10:00 +16°C° 0 mm 3 m/s 751 mmHg 59%
    11:00 +17°C° 0 mm 3 m/s 751 mmHg 53%
    12:00 +17°C° 0 mm 3 m/s 751 mmHg 51%
    13:00 +18°C° 0 mm 3 m/s 750 mmHg 50%
    14:00 +18°C° 0 mm 3 m/s 750 mmHg 48%
    15:00 +18°C° 0 mm 3 m/s 750 mmHg 53%
    16:00 +18°C° 0 mm 2 m/s 750 mmHg 58%
    17:00 +17°C° 0 mm 2 m/s 750 mmHg 62%
    18:00 +15°C° 0 mm 2 m/s 750 mmHg 65%
    19:00 +13°C° 0 mm 2 m/s 750 mmHg 68%
    20:00 +10°C° 0 mm 2 m/s 750 mmHg 70%
    21:00 +10°C° 0 mm 2 m/s 750 mmHg 71%
    22:00 +10°C° 0 mm 1 m/s 751 mmHg 72%
    23:00 +9°C° 0 mm 1 m/s 751 mmHg 73%

    29 Août, Jeudi

    Heure Température Précipitation Vent Pression Humidité
    00:00 +9°C° 0 mm 1 m/s 751 mmHg 74%
    01:00 +8°C° 0 mm 1 m/s 751 mmHg 75%
    02:00 +8°C° 0 mm 1 m/s 751 mmHg 76%
    03:00 +7°C° 0 mm 1 m/s 751 mmHg 76%
    04:00 +7°C° 0 mm 1 m/s 751 mmHg 77%
    05:00 +6°C° 0 mm 0 m/s 751 mmHg 77%
    06:00 +9°C° 0 mm 1 m/s 751 mmHg 72%
    07:00 +11°C° 0 mm 1 m/s 751 mmHg 66%
    08:00 +13°C° 0 mm 1 m/s 751 mmHg 61%
    09:00 +14°C° 0 mm 1 m/s 751 mmHg 57%
    10:00 +16°C° 0 mm 1 m/s 751 mmHg 52%
    11:00 +18°C° 0 mm 1 m/s 751 mmHg 47%
    12:00 +19°C° 0 mm 1 m/s 750 mmHg 48%
    13:00 +19°C° 0 mm 1 m/s 750 mmHg 49%
    14:00 +20°C° 0 mm 1 m/s 750 mmHg 50%
    15:00 +20°C° 0 mm 1 m/s 750 mmHg 55%
    16:00 +20°C° 0 mm 1 m/s 750 mmHg 61%
    17:00 +20°C° 0 mm 1 m/s 750 mmHg 66%
    18:00 +18°C° 0 mm 1 m/s 750 mmHg 72%
    19:00 +15°C° 0 mm 1 m/s 750 mmHg 78%
    20:00 +13°C° 0 mm 1 m/s 749 mmHg 84%
    21:00 +13°C° 0 mm 1 m/s 750 mmHg 86%
    22:00 +12°C° 0 mm 1 m/s 750 mmHg 88%
    23:00 +12°C° 0 mm 1 m/s 750 mmHg 90%
    Voir plus